Year,Month,Day,Hour,Minute,Value (Times are PST for windspeed in km/hr)
2015,08,27,00,00,20.60
2015,08,27,00,01,20.70
2015,08,27,00,02,22.30
2015,08,27,00,03,22.40
2015,08,27,00,04,19.90
2015,08,27,00,05,18.60
2015,08,27,00,06,19.10
2015,08,27,00,07,18.50
2015,08,27,00,08,17.10
2015,08,27,00,09,16.70
2015,08,27,00,10,16.50
2015,08,27,00,11,17.50
2015,08,27,00,12,18.20
2015,08,27,00,13,17.80
2015,08,27,00,14,18.20
2015,08,27,00,15,17.90
2015,08,27,00,16,18.70
2015,08,27,00,17,18.30
2015,08,27,00,18,18.20
2015,08,27,00,19,18.10
2015,08,27,00,20,17.00
2015,08,27,00,21,17.60
2015,08,27,00,22,19.10
2015,08,27,00,23,19.10
2015,08,27,00,24,20.50
2015,08,27,00,25,19.90
2015,08,27,00,26,20.20
2015,08,27,00,27,21.70
2015,08,27,00,28,22.50
2015,08,27,00,29,20.60
2015,08,27,00,30,19.70
2015,08,27,00,31,19.10
2015,08,27,00,32,19.80
2015,08,27,00,33,18.70
2015,08,27,00,34,18.60
2015,08,27,00,35,17.20
2015,08,27,00,36,18.30
2015,08,27,00,37,16.90
2015,08,27,00,38,17.90
2015,08,27,00,39,18.50
2015,08,27,00,40,19.10
2015,08,27,00,41,19.70
2015,08,27,00,42,20.80
2015,08,27,00,43,20.90
2015,08,27,00,44,21.10
2015,08,27,00,45,21.40
2015,08,27,00,46,20.80
2015,08,27,00,47,20.50
2015,08,27,00,48,20.80
2015,08,27,00,49,20.60
2015,08,27,00,50,20.20
2015,08,27,00,51,19.60
2015,08,27,00,52,19.70
2015,08,27,00,53,20.00
2015,08,27,00,54,20.50
2015,08,27,00,55,19.30
2015,08,27,00,56,19.60
2015,08,27,00,57,19.20
2015,08,27,00,58,19.30
2015,08,27,00,59,19.90
2015,08,27,01,00,20.00
2015,08,27,01,01,20.40
2015,08,27,01,02,20.90
2015,08,27,01,03,20.60
2015,08,27,01,04,20.30
2015,08,27,01,05,19.90
2015,08,27,01,06,18.90
2015,08,27,01,07,17.90
2015,08,27,01,08,17.80
2015,08,27,01,09,18.20
2015,08,27,01,10,17.50
2015,08,27,01,11,17.20
2015,08,27,01,12,17.20
2015,08,27,01,13,17.90
2015,08,27,01,14,17.50
2015,08,27,01,15,17.00
2015,08,27,01,16,17.20
2015,08,27,01,17,16.70
2015,08,27,01,18,17.40
2015,08,27,01,19,17.60
2015,08,27,01,20,16.10
2015,08,27,01,21,16.00
2015,08,27,01,22,14.60
2015,08,27,01,23,14.60
2015,08,27,01,24,15.00
2015,08,27,01,25,14.80
2015,08,27,01,26,14.20
2015,08,27,01,27,14.20
2015,08,27,01,28,13.00
2015,08,27,01,29,12.50
2015,08,27,01,30,11.90
2015,08,27,01,31,13.10
2015,08,27,01,32,13.40
2015,08,27,01,33,13.80
2015,08,27,01,34,14.80
2015,08,27,01,35,15.80
2015,08,27,01,36,15.30
2015,08,27,01,37,16.00
2015,08,27,01,38,16.00
2015,08,27,01,39,15.50
2015,08,27,01,40,14.10
2015,08,27,01,41,14.00
2015,08,27,01,42,15.00
2015,08,27,01,43,15.40
2015,08,27,01,44,15.60
2015,08,27,01,45,16.60
2015,08,27,01,46,17.20
2015,08,27,01,47,17.40
2015,08,27,01,48,16.60
2015,08,27,01,49,17.40
2015,08,27,01,50,17.20
2015,08,27,01,51,16.60
2015,08,27,01,52,15.50
2015,08,27,01,53,15.00
2015,08,27,01,54,14.80
2015,08,27,01,55,14.50
2015,08,27,01,56,14.60
2015,08,27,01,57,14.60
2015,08,27,01,58,15.00
2015,08,27,01,59,14.60
2015,08,27,02,00,13.60
2015,08,27,02,01,13.70
2015,08,27,02,02,13.50
2015,08,27,02,03,14.20
2015,08,27,02,04,12.60
2015,08,27,02,05,12.40
2015,08,27,02,06,12.10
2015,08,27,02,07,13.70
2015,08,27,02,08,13.10
2015,08,27,02,09,14.30
2015,08,27,02,10,15.70
2015,08,27,02,11,14.70
2015,08,27,02,12,14.30
2015,08,27,02,13,14.30
2015,08,27,02,14,14.10
2015,08,27,02,15,13.80
2015,08,27,02,16,14.30
2015,08,27,02,17,14.20
2015,08,27,02,18,14.70
2015,08,27,02,19,14.90
2015,08,27,02,20,14.30
2015,08,27,02,21,14.70
2015,08,27,02,22,14.20
2015,08,27,02,23,14.80
2015,08,27,02,24,14.40
2015,08,27,02,25,14.00
2015,08,27,02,26,13.30
2015,08,27,02,27,12.50
2015,08,27,02,28,11.40
2015,08,27,02,29,10.80
2015,08,27,02,30,11.30
2015,08,27,02,31,11.00
2015,08,27,02,32,10.20
2015,08,27,02,33,10.50
2015,08,27,02,34,11.40
2015,08,27,02,35,10.40
2015,08,27,02,36,10.40
2015,08,27,02,37,9.40
2015,08,27,02,38,8.50
2015,08,27,02,39,8.50
2015,08,27,02,40,8.40
2015,08,27,02,41,7.80
2015,08,27,02,42,7.10
2015,08,27,02,43,6.10
2015,08,27,02,44,5.40
2015,08,27,02,45,6.60
2015,08,27,02,46,8.10
2015,08,27,02,47,9.70
2015,08,27,02,48,10.90
2015,08,27,02,49,10.50
2015,08,27,02,50,11.10
2015,08,27,02,51,11.80
2015,08,27,02,52,11.70
2015,08,27,02,53,12.50
2015,08,27,02,54,13.20
2015,08,27,02,55,14.20
2015,08,27,02,56,14.60
2015,08,27,02,57,15.80
2015,08,27,02,58,16.90
2015,08,27,02,59,18.00
2015,08,27,03,00,20.30
2015,08,27,03,01,21.90
2015,08,27,03,02,22.60
2015,08,27,03,03,21.20
2015,08,27,03,04,22.40
2015,08,27,03,05,19.00
2015,08,27,03,06,19.20
2015,08,27,03,07,19.60
2015,08,27,03,08,20.10
2015,08,27,03,09,19.90
2015,08,27,03,10,20.50
2015,08,27,03,11,21.10
2015,08,27,03,12,21.00
2015,08,27,03,13,21.80
2015,08,27,03,14,21.20
2015,08,27,03,15,21.30
2015,08,27,03,16,21.30
2015,08,27,03,17,20.70
2015,08,27,03,18,20.90
2015,08,27,03,19,20.50
2015,08,27,03,20,19.40
2015,08,27,03,21,20.30
2015,08,27,03,22,19.90
2015,08,27,03,23,19.70
2015,08,27,03,24,20.00
2015,08,27,03,25,19.40
2015,08,27,03,26,19.10
2015,08,27,03,27,19.50
2015,08,27,03,28,19.90
2015,08,27,03,29,18.30
2015,08,27,03,30,17.80
2015,08,27,03,31,16.60
2015,08,27,03,32,15.90
2015,08,27,03,33,15.20
2015,08,27,03,34,15.10
2015,08,27,03,35,14.70
2015,08,27,03,36,14.60
2015,08,27,03,37,14.80
2015,08,27,03,38,14.90
2015,08,27,03,39,15.00
2015,08,27,03,40,14.60
2015,08,27,03,41,13.80
2015,08,27,03,42,15.20
2015,08,27,03,43,13.60
2015,08,27,03,44,12.10
2015,08,27,03,45,12.00
2015,08,27,03,46,11.70
2015,08,27,03,47,11.60
2015,08,27,03,48,12.20
2015,08,27,03,49,13.00
2015,08,27,03,50,13.00
2015,08,27,03,51,13.70
2015,08,27,03,52,14.50
2015,08,27,03,53,14.90
2015,08,27,03,54,15.30
2015,08,27,03,55,15.20
2015,08,27,03,56,16.50
2015,08,27,03,57,17.10
2015,08,27,03,58,17.60
2015,08,27,03,59,17.20
2015,08,27,04,00,16.90
2015,08,27,04,01,16.10
2015,08,27,04,02,15.90
2015,08,27,04,03,16.20
2015,08,27,04,04,15.80
2015,08,27,04,05,15.10
2015,08,27,04,06,14.90
2015,08,27,04,07,14.10
2015,08,27,04,08,15.10
2015,08,27,04,09,15.10
2015,08,27,04,10,15.30
2015,08,27,04,11,15.40
2015,08,27,04,12,14.50
2015,08,27,04,13,14.20
2015,08,27,04,14,14.50
2015,08,27,04,15,13.90
2015,08,27,04,16,14.60
2015,08,27,04,17,14.20
2015,08,27,04,18,13.70
2015,08,27,04,19,14.10
2015,08,27,04,20,15.60
2015,08,27,04,21,14.90
2015,08,27,04,22,14.20
2015,08,27,04,23,14.60
2015,08,27,04,24,14.30
2015,08,27,04,25,15.30
2015,08,27,04,26,13.90
2015,08,27,04,27,13.40
2015,08,27,04,28,12.70
2015,08,27,04,29,12.70
2015,08,27,04,30,12.10
2015,08,27,04,31,14.10
2015,08,27,04,32,14.80
2015,08,27,04,33,17.30
2015,08,27,04,34,16.90
2015,08,27,04,35,17.20
2015,08,27,04,36,16.80
2015,08,27,04,37,17.50
2015,08,27,04,38,18.80
2015,08,27,04,39,17.70
2015,08,27,04,40,17.50
2015,08,27,04,41,17.60
2015,08,27,04,42,16.90
2015,08,27,04,43,16.90
2015,08,27,04,44,16.30
2015,08,27,04,45,15.90
2015,08,27,04,46,15.20
2015,08,27,04,47,15.10
2015,08,27,04,48,14.80
2015,08,27,04,49,14.70
2015,08,27,04,50,13.60
2015,08,27,04,51,13.80
2015,08,27,04,52,11.30
2015,08,27,04,53,11.30
2015,08,27,04,54,10.90
2015,08,27,04,55,12.00
2015,08,27,04,56,11.80
2015,08,27,04,57,9.80
2015,08,27,04,58,9.70
2015,08,27,04,59,9.70
2015,08,27,05,00,9.40
2015,08,27,05,01,8.50
2015,08,27,05,02,8.30
2015,08,27,05,03,10.80
2015,08,27,05,04,10.60
2015,08,27,05,05,10.50
2015,08,27,05,06,12.10
2015,08,27,05,07,12.70
2015,08,27,05,08,13.80
2015,08,27,05,09,14.00
2015,08,27,05,10,12.20
2015,08,27,05,11,11.50
2015,08,27,05,12,12.70
2015,08,27,05,13,12.10
2015,08,27,05,14,12.30
2015,08,27,05,15,12.30
2015,08,27,05,16,14.00
2015,08,27,05,17,16.60
2015,08,27,05,18,20.60
2015,08,27,05,19,23.30
2015,08,27,05,20,23.10
2015,08,27,05,21,24.40
2015,08,27,05,22,24.70
2015,08,27,05,23,25.70
2015,08,27,05,24,25.70
2015,08,27,05,25,25.70
2015,08,27,05,26,24.90
2015,08,27,05,27,26.10
2015,08,27,05,28,26.50
2015,08,27,05,29,24.40
2015,08,27,05,30,27.50
2015,08,27,05,31,26.60
2015,08,27,05,32,26.90
2015,08,27,05,33,26.10
2015,08,27,05,34,26.90
2015,08,27,05,35,25.90
2015,08,27,05,36,28.30
2015,08,27,05,37,27.60
2015,08,27,05,38,28.20
2015,08,27,05,39,27.50
2015,08,27,05,40,27.40
2015,08,27,05,41,27.80
2015,08,27,05,42,27.80
2015,08,27,05,43,26.90
2015,08,27,05,44,26.60
2015,08,27,05,45,26.50
2015,08,27,05,46,27.70
2015,08,27,05,47,28.70
2015,08,27,05,48,30.80
2015,08,27,05,49,31.10
2015,08,27,05,50,30.70
2015,08,27,05,51,30.30
2015,08,27,05,52,30.70
2015,08,27,05,53,29.90
2015,08,27,05,54,28.20
2015,08,27,05,55,30.70
2015,08,27,05,56,31.50
2015,08,27,05,57,30.90
2015,08,27,05,58,32.90
2015,08,27,05,59,33.40
2015,08,27,06,00,33.20
2015,08,27,06,01,31.70
2015,08,27,06,02,31.40
2015,08,27,06,03,32.00
2015,08,27,06,04,31.80
2015,08,27,06,05,33.00
2015,08,27,06,06,34.30
2015,08,27,06,07,34.40
2015,08,27,06,08,34.50
2015,08,27,06,09,35.10
2015,08,27,06,10,35.20
2015,08,27,06,11,34.90
2015,08,27,06,12,35.00
2015,08,27,06,13,35.50
2015,08,27,06,14,35.10
2015,08,27,06,15,34.40
2015,08,27,06,16,33.70
2015,08,27,06,17,33.40
2015,08,27,06,18,34.30
2015,08,27,06,19,34.40
2015,08,27,06,20,34.10
2015,08,27,06,21,33.80
2015,08,27,06,22,34.80
2015,08,27,06,23,35.20
2015,08,27,06,24,35.20
2015,08,27,06,25,35.20
2015,08,27,06,26,34.90
2015,08,27,06,27,34.00
2015,08,27,06,28,33.80
2015,08,27,06,29,33.60
2015,08,27,06,30,32.40
2015,08,27,06,31,32.10
2015,08,27,06,32,31.90
2015,08,27,06,33,31.50
2015,08,27,06,34,30.10
2015,08,27,06,35,28.80
2015,08,27,06,36,28.30
2015,08,27,06,37,28.20
2015,08,27,06,38,28.70
2015,08,27,06,39,27.40
2015,08,27,06,40,26.30
2015,08,27,06,41,24.00
2015,08,27,06,42,19.00
2015,08,27,06,43,15.10
2015,08,27,06,44,17.00
2015,08,27,06,45,16.80
2015,08,27,06,46,15.10
2015,08,27,06,47,15.20
2015,08,27,06,48,16.90
2015,08,27,06,49,18.90
2015,08,27,06,50,15.20
2015,08,27,06,51,14.60
2015,08,27,06,52,15.40
2015,08,27,06,53,15.70
2015,08,27,06,54,16.50
2015,08,27,06,55,15.90
2015,08,27,06,56,14.50
2015,08,27,06,57,14.10
2015,08,27,06,58,13.30
2015,08,27,06,59,12.50
2015,08,27,07,00,11.00
2015,08,27,07,01,9.30
2015,08,27,07,02,8.10
2015,08,27,07,03,6.60
2015,08,27,07,04,4.40
2015,08,27,07,05,4.90
2015,08,27,07,06,4.30
2015,08,27,07,07,3.00
2015,08,27,07,08,1.60
2015,08,27,07,09,2.20
2015,08,27,07,10,2.40
2015,08,27,07,11,2.60
2015,08,27,07,12,4.50
2015,08,27,07,13,5.10
2015,08,27,07,14,4.40
2015,08,27,07,15,4.40
2015,08,27,07,16,5.70
2015,08,27,07,17,7.30
2015,08,27,07,18,9.40
2015,08,27,07,19,10.50
2015,08,27,07,20,8.60
2015,08,27,07,21,8.00
2015,08,27,07,22,8.10
2015,08,27,07,23,8.30
2015,08,27,07,24,5.60
2015,08,27,07,25,4.70
2015,08,27,07,26,6.60
2015,08,27,07,27,10.70
2015,08,27,07,28,9.70
2015,08,27,07,29,7.50
2015,08,27,07,30,6.40
2015,08,27,07,31,5.60
2015,08,27,07,32,4.60
2015,08,27,07,33,3.10
2015,08,27,07,34,0.60
2015,08,27,07,35,0.00
2015,08,27,07,36,0.00
2015,08,27,07,37,3.60
2015,08,27,07,38,6.00
2015,08,27,07,39,3.70
2015,08,27,07,40,5.80
2015,08,27,07,41,8.10
2015,08,27,07,42,9.10
2015,08,27,07,43,6.40
2015,08,27,07,44,4.90
2015,08,27,07,45,3.40
2015,08,27,07,46,6.00
2015,08,27,07,47,7.60
2015,08,27,07,48,9.00
2015,08,27,07,49,10.70
2015,08,27,07,50,10.40
2015,08,27,07,51,9.80
2015,08,27,07,52,11.10
2015,08,27,07,53,11.20
2015,08,27,07,54,11.30
2015,08,27,07,55,11.20
2015,08,27,07,56,11.90
2015,08,27,07,57,10.90
2015,08,27,07,58,9.00
2015,08,27,07,59,9.30
2015,08,27,08,00,9.10
2015,08,27,08,01,9.00
2015,08,27,08,02,9.70
2015,08,27,08,03,9.60
2015,08,27,08,04,9.10
2015,08,27,08,05,8.20
2015,08,27,08,06,8.80
2015,08,27,08,07,9.00
2015,08,27,08,08,7.80
2015,08,27,08,09,7.70
2015,08,27,08,10,8.10
2015,08,27,08,11,7.40
2015,08,27,08,12,6.10
2015,08,27,08,13,3.90
2015,08,27,08,14,6.90
2015,08,27,08,15,9.30
2015,08,27,08,16,10.70
2015,08,27,08,17,9.20
2015,08,27,08,18,10.30
2015,08,27,08,19,9.20
2015,08,27,08,20,8.50
2015,08,27,08,21,9.30
2015,08,27,08,22,8.90
2015,08,27,08,23,11.00
2015,08,27,08,24,11.70
2015,08,27,08,25,12.90
2015,08,27,08,26,13.30
2015,08,27,08,27,11.10
2015,08,27,08,28,10.70
2015,08,27,08,29,10.90
2015,08,27,08,30,10.50
2015,08,27,08,31,9.00
2015,08,27,08,32,10.70
2015,08,27,08,33,11.00
2015,08,27,08,34,10.20
2015,08,27,08,35,10.50
2015,08,27,08,36,10.70
2015,08,27,08,37,10.60
2015,08,27,08,38,9.20
2015,08,27,08,39,9.20
2015,08,27,08,40,11.40
2015,08,27,08,41,12.60
2015,08,27,08,42,14.80
2015,08,27,08,43,14.70
2015,08,27,08,44,15.00
2015,08,27,08,45,14.00
2015,08,27,08,46,13.50
2015,08,27,08,47,13.90
2015,08,27,08,48,13.30
2015,08,27,08,49,13.30
2015,08,27,08,50,12.90
2015,08,27,08,51,13.90
2015,08,27,08,52,13.50
2015,08,27,08,53,12.60
2015,08,27,08,54,12.70
2015,08,27,08,55,12.30
2015,08,27,08,56,11.10
2015,08,27,08,57,12.20
2015,08,27,08,58,12.60
2015,08,27,08,59,11.60
2015,08,27,09,00,10.90
2015,08,27,09,01,10.70
2015,08,27,09,02,11.00
2015,08,27,09,03,11.20
2015,08,27,09,04,10.90
2015,08,27,09,05,10.50
2015,08,27,09,06,9.60
2015,08,27,09,07,9.50
2015,08,27,09,08,10.10
2015,08,27,09,09,10.90
2015,08,27,09,10,11.10
2015,08,27,09,11,12.30
2015,08,27,09,12,12.90
2015,08,27,09,13,14.20
2015,08,27,09,14,13.70
2015,08,27,09,15,13.10
2015,08,27,09,16,12.90
2015,08,27,09,17,12.10
2015,08,27,09,18,11.10
2015,08,27,09,19,11.10
2015,08,27,09,20,11.90
2015,08,27,09,21,11.60
2015,08,27,09,22,11.30
2015,08,27,09,23,10.90
2015,08,27,09,24,10.70
2015,08,27,09,25,11.70
2015,08,27,09,26,11.30
2015,08,27,09,27,10.90
2015,08,27,09,28,10.40
2015,08,27,09,29,10.00
2015,08,27,09,30,9.80
2015,08,27,09,31,9.80
2015,08,27,09,32,11.00
2015,08,27,09,33,10.80
2015,08,27,09,34,10.20
2015,08,27,09,35,9.90
2015,08,27,09,36,10.90
2015,08,27,09,37,10.90
2015,08,27,09,38,11.20
2015,08,27,09,39,11.90
2015,08,27,09,40,11.90
2015,08,27,09,41,12.50
2015,08,27,09,42,12.70
2015,08,27,09,43,12.00
2015,08,27,09,44,11.30
2015,08,27,09,45,11.00
2015,08,27,09,46,10.90
2015,08,27,09,47,10.80
2015,08,27,09,48,12.20
2015,08,27,09,49,13.40
2015,08,27,09,50,13.70
2015,08,27,09,51,15.00
2015,08,27,09,52,13.90
2015,08,27,09,53,12.50
2015,08,27,09,54,12.00
2015,08,27,09,55,12.20
2015,08,27,09,56,12.20
2015,08,27,09,57,11.80
2015,08,27,09,58,11.40
2015,08,27,09,59,11.70
2015,08,27,10,00,12.10
2015,08,27,10,01,13.20
2015,08,27,10,02,14.20
2015,08,27,10,03,13.80
2015,08,27,10,04,13.00
2015,08,27,10,05,12.40
2015,08,27,10,06,12.60
2015,08,27,10,07,12.60
2015,08,27,10,08,12.60
2015,08,27,10,09,12.20
2015,08,27,10,10,12.30
2015,08,27,10,11,12.70
2015,08,27,10,12,11.20
2015,08,27,10,13,10.20
2015,08,27,10,14,10.30
2015,08,27,10,15,10.50
2015,08,27,10,16,10.90
2015,08,27,10,17,11.10
2015,08,27,10,18,10.00
2015,08,27,10,19,9.80
2015,08,27,10,20,10.10
2015,08,27,10,21,10.40
2015,08,27,10,22,11.10
2015,08,27,10,23,10.90
2015,08,27,10,24,10.50
2015,08,27,10,25,10.00
2015,08,27,10,26,9.90
2015,08,27,10,27,9.70
2015,08,27,10,28,10.30
2015,08,27,10,29,10.10
2015,08,27,10,30,9.40
2015,08,27,10,31,9.30
2015,08,27,10,32,8.40
2015,08,27,10,33,6.90
2015,08,27,10,34,6.20
2015,08,27,10,35,5.00
2015,08,27,10,36,6.30
2015,08,27,10,37,7.90
2015,08,27,10,38,9.10
2015,08,27,10,39,8.40
2015,08,27,10,40,8.50
2015,08,27,10,41,8.40
2015,08,27,10,42,8.50
2015,08,27,10,43,9.10
2015,08,27,10,44,9.40
2015,08,27,10,45,10.10
2015,08,27,10,46,9.90
2015,08,27,10,47,9.80
2015,08,27,10,48,8.80
2015,08,27,10,49,8.40
2015,08,27,10,50,8.00
2015,08,27,10,51,7.80
2015,08,27,10,52,7.10
2015,08,27,10,53,6.40
2015,08,27,10,54,5.50
2015,08,27,10,55,5.80
2015,08,27,10,56,7.10
2015,08,27,10,57,9.00
2015,08,27,10,58,9.20
2015,08,27,10,59,9.30
2015,08,27,11,00,9.00
2015,08,27,11,01,8.40
2015,08,27,11,02,8.60
2015,08,27,11,03,8.40
2015,08,27,11,04,8.60
2015,08,27,11,05,9.10
2015,08,27,11,06,9.00
2015,08,27,11,07,9.60
2015,08,27,11,08,9.60
2015,08,27,11,09,8.70
2015,08,27,11,10,8.40
2015,08,27,11,11,9.20
2015,08,27,11,12,9.40
2015,08,27,11,13,9.60
2015,08,27,11,14,9.90
2015,08,27,11,15,10.50
2015,08,27,11,16,11.00
2015,08,27,11,17,10.80
2015,08,27,11,18,10.90
2015,08,27,11,19,10.30
2015,08,27,11,20,9.60
2015,08,27,11,21,10.00
2015,08,27,11,22,10.50
2015,08,27,11,23,9.90
2015,08,27,11,24,9.40
2015,08,27,11,25,8.90
2015,08,27,11,26,8.80
2015,08,27,11,27,8.80
2015,08,27,11,28,9.60
2015,08,27,11,29,9.70
2015,08,27,11,30,8.90
2015,08,27,11,31,8.30
2015,08,27,11,32,8.10
2015,08,27,11,33,8.10
2015,08,27,11,34,7.00
2015,08,27,11,35,6.40
2015,08,27,11,36,6.40
2015,08,27,11,37,6.30
2015,08,27,11,38,5.60
2015,08,27,11,39,5.00
2015,08,27,11,40,4.50
2015,08,27,11,41,4.40
2015,08,27,11,42,5.30
2015,08,27,11,43,7.00
2015,08,27,11,44,7.90
2015,08,27,11,45,8.10
2015,08,27,11,46,8.10
2015,08,27,11,47,9.70
2015,08,27,11,48,10.10
2015,08,27,11,49,9.90
2015,08,27,11,50,9.40
2015,08,27,11,51,9.80
2015,08,27,11,52,9.60
2015,08,27,11,53,10.50
2015,08,27,11,54,10.50
2015,08,27,11,55,10.40
2015,08,27,11,56,10.00
2015,08,27,11,57,8.90
2015,08,27,11,58,9.30
2015,08,27,11,59,9.60
2015,08,27,12,00,9.40
2015,08,27,12,01,9.20
2015,08,27,12,02,9.30
2015,08,27,12,03,9.10
2015,08,27,12,04,9.60
2015,08,27,12,05,9.00
2015,08,27,12,06,8.80
2015,08,27,12,07,8.10
2015,08,27,12,08,7.30
2015,08,27,12,09,7.10
2015,08,27,12,10,6.00
2015,08,27,12,11,5.30
2015,08,27,12,12,4.70
2015,08,27,12,13,4.90
2015,08,27,12,14,3.70
2015,08,27,12,15,2.90
2015,08,27,12,16,1.10
2015,08,27,12,17,0.00
2015,08,27,12,18,0.00
2015,08,27,12,19,0.00
2015,08,27,12,20,0.00
2015,08,27,12,21,0.00
2015,08,27,12,22,0.00
2015,08,27,12,23,0.00
2015,08,27,12,24,0.90
2015,08,27,12,25,5.20
2015,08,27,12,26,5.90
2015,08,27,12,27,5.60
2015,08,27,12,28,5.30
2015,08,27,12,29,5.60
2015,08,27,12,30,5.90
2015,08,27,12,31,6.10
2015,08,27,12,32,5.60
2015,08,27,12,33,5.70
2015,08,27,12,34,6.80
2015,08,27,12,35,7.90
2015,08,27,12,36,8.40
2015,08,27,12,37,8.50
2015,08,27,12,38,8.00
2015,08,27,12,39,7.40
2015,08,27,12,40,7.30
2015,08,27,12,41,7.10
2015,08,27,12,42,7.60
2015,08,27,12,43,8.10
2015,08,27,12,44,7.90
2015,08,27,12,45,6.90
2015,08,27,12,46,6.00
2015,08,27,12,47,6.20
2015,08,27,12,48,6.10
2015,08,27,12,49,5.30
2015,08,27,12,50,5.80
2015,08,27,12,51,7.30
2015,08,27,12,52,6.90
2015,08,27,12,53,6.60
2015,08,27,12,54,5.20
2015,08,27,12,55,5.00
2015,08,27,12,56,4.80
2015,08,27,12,57,5.20
2015,08,27,12,58,6.50
2015,08,27,12,59,7.00
2015,08,27,13,00,7.90
2015,08,27,13,01,8.40
2015,08,27,13,02,9.80
2015,08,27,13,03,9.50
2015,08,27,13,04,10.20
2015,08,27,13,05,11.40
2015,08,27,13,06,12.70
2015,08,27,13,07,13.30
2015,08,27,13,08,11.70
2015,08,27,13,09,13.30
2015,08,27,13,10,15.60
2015,08,27,13,11,15.00
2015,08,27,13,12,13.30
2015,08,27,13,13,12.70
2015,08,27,13,14,12.70
2015,08,27,13,15,13.90
2015,08,27,13,16,15.40
2015,08,27,13,17,15.30
2015,08,27,13,18,13.70
2015,08,27,13,19,13.00
2015,08,27,13,20,12.40
2015,08,27,13,21,11.80
2015,08,27,13,22,11.80
2015,08,27,13,23,11.00
2015,08,27,13,24,13.20
2015,08,27,13,25,13.80
2015,08,27,13,26,14.20
2015,08,27,13,27,14.20
2015,08,27,13,28,14.90
2015,08,27,13,29,15.70
2015,08,27,13,30,15.80
2015,08,27,13,31,15.90
2015,08,27,13,32,16.10
2015,08,27,13,33,15.80
2015,08,27,13,34,16.10
2015,08,27,13,35,15.50
2015,08,27,13,36,13.60
2015,08,27,13,37,11.70
2015,08,27,13,38,11.20
2015,08,27,13,39,11.10
2015,08,27,13,40,11.20
2015,08,27,13,41,12.10
2015,08,27,13,42,13.20
2015,08,27,13,43,14.10
2015,08,27,13,44,15.00
2015,08,27,13,45,15.20
2015,08,27,13,46,14.90
2015,08,27,13,47,14.70
2015,08,27,13,48,14.60
2015,08,27,13,49,14.70
2015,08,27,13,50,13.80
2015,08,27,13,51,13.80
2015,08,27,13,52,12.90
2015,08,27,13,53,12.30
2015,08,27,13,54,12.20
2015,08,27,13,55,12.30
2015,08,27,13,56,12.40
2015,08,27,13,57,12.00
2015,08,27,13,58,12.40
2015,08,27,13,59,12.00
2015,08,27,14,00,12.80
2015,08,27,14,01,12.80
2015,08,27,14,02,13.10
2015,08,27,14,03,13.40
2015,08,27,14,04,14.20
2015,08,27,14,05,12.70
2015,08,27,14,06,10.60
2015,08,27,14,07,10.00
2015,08,27,14,08,9.70
2015,08,27,14,09,10.00
2015,08,27,14,10,9.80
2015,08,27,14,11,9.70
2015,08,27,14,12,8.80
2015,08,27,14,13,8.70
2015,08,27,14,14,8.10
2015,08,27,14,15,8.00
2015,08,27,14,16,8.60
2015,08,27,14,17,9.00
2015,08,27,14,18,10.50
2015,08,27,14,19,10.30
2015,08,27,14,20,9.10
2015,08,27,14,21,8.40
2015,08,27,14,22,8.10
2015,08,27,14,23,7.80
2015,08,27,14,24,8.00
2015,08,27,14,25,7.80
2015,08,27,14,26,7.80
2015,08,27,14,27,6.90
2015,08,27,14,28,5.10
2015,08,27,14,29,4.40
2015,08,27,14,30,6.40
2015,08,27,14,31,9.60
2015,08,27,14,32,10.80
2015,08,27,14,33,10.90
2015,08,27,14,34,10.00
2015,08,27,14,35,8.10
2015,08,27,14,36,6.40
2015,08,27,14,37,6.20
2015,08,27,14,38,6.80
2015,08,27,14,39,8.40
2015,08,27,14,40,9.30
2015,08,27,14,41,9.90
2015,08,27,14,42,10.40
2015,08,27,14,43,10.80
2015,08,27,14,44,11.50
2015,08,27,14,45,11.20
2015,08,27,14,46,11.40
2015,08,27,14,47,11.50
2015,08,27,14,48,11.00
2015,08,27,14,49,11.30
2015,08,27,14,50,11.30
2015,08,27,14,51,12.30
2015,08,27,14,52,13.60
2015,08,27,14,53,13.60
2015,08,27,14,54,13.60
2015,08,27,14,55,11.80
2015,08,27,14,56,11.50
2015,08,27,14,57,11.50
2015,08,27,14,58,11.10
2015,08,27,14,59,11.50
2015,08,27,15,00,11.30
2015,08,27,15,01,11.80
2015,08,27,15,02,12.70
2015,08,27,15,03,13.20
2015,08,27,15,04,13.80
2015,08,27,15,05,15.00
2015,08,27,15,06,15.00
2015,08,27,15,07,15.20
2015,08,27,15,08,15.60
2015,08,27,15,09,14.70
2015,08,27,15,10,14.80
2015,08,27,15,11,15.30
2015,08,27,15,12,16.20
2015,08,27,15,13,17.60
2015,08,27,15,14,17.90
2015,08,27,15,15,18.40
2015,08,27,15,16,18.20
2015,08,27,15,17,16.70
2015,08,27,15,18,15.60
2015,08,27,15,19,15.00
2015,08,27,15,20,15.10
2015,08,27,15,21,16.00
2015,08,27,15,22,15.20
2015,08,27,15,23,15.00
2015,08,27,15,24,14.60
2015,08,27,15,25,15.10
2015,08,27,15,26,14.50
2015,08,27,15,27,14.30
2015,08,27,15,28,14.00
2015,08,27,15,29,14.40
2015,08,27,15,30,14.20
2015,08,27,15,31,14.20
2015,08,27,15,32,14.50
2015,08,27,15,33,15.20
2015,08,27,15,34,15.80
2015,08,27,15,35,16.20
2015,08,27,15,36,15.60
2015,08,27,15,37,14.90
2015,08,27,15,38,15.00
2015,08,27,15,39,15.30
2015,08,27,15,40,15.10
2015,08,27,15,41,15.00
2015,08,27,15,42,14.90
2015,08,27,15,43,14.60
2015,08,27,15,44,13.60
2015,08,27,15,45,14.20
2015,08,27,15,46,14.30
2015,08,27,15,47,15.30
2015,08,27,15,48,14.90
2015,08,27,15,49,15.50
2015,08,27,15,50,15.80
2015,08,27,15,51,15.70
2015,08,27,15,52,16.70
2015,08,27,15,53,16.80
2015,08,27,15,54,17.60
2015,08,27,15,55,17.50
2015,08,27,15,56,17.60
2015,08,27,15,57,18.30
2015,08,27,15,58,17.60
2015,08,27,15,59,18.10
2015,08,27,16,00,18.90
2015,08,27,16,01,19.60
2015,08,27,16,02,19.90
2015,08,27,16,03,18.90
2015,08,27,16,04,17.00
2015,08,27,16,05,17.50
2015,08,27,16,06,18.30
2015,08,27,16,07,17.10
2015,08,27,16,08,15.90
2015,08,27,16,09,15.60
2015,08,27,16,10,14.90
2015,08,27,16,11,13.50
2015,08,27,16,12,13.30
2015,08,27,16,13,13.00
2015,08,27,16,14,13.30
2015,08,27,16,15,12.90
2015,08,27,16,16,12.90
2015,08,27,16,17,12.90
2015,08,27,16,18,12.90
2015,08,27,16,19,12.90
2015,08,27,16,20,13.30
2015,08,27,16,21,14.60
2015,08,27,16,22,14.40
2015,08,27,16,23,15.10
2015,08,27,16,24,14.70
2015,08,27,16,25,15.00
2015,08,27,16,26,15.20
2015,08,27,16,27,15.10
2015,08,27,16,28,15.20
2015,08,27,16,29,15.90
2015,08,27,16,30,16.80
2015,08,27,16,31,16.30
2015,08,27,16,32,16.20
2015,08,27,16,33,17.50
2015,08,27,16,34,17.30
2015,08,27,16,35,16.80
2015,08,27,16,36,17.50
2015,08,27,16,37,17.50
2015,08,27,16,38,16.50
2015,08,27,16,39,14.30
2015,08,27,16,40,14.20
2015,08,27,16,41,14.10
2015,08,27,16,42,12.50
2015,08,27,16,43,13.50
2015,08,27,16,44,15.90
2015,08,27,16,45,15.90
2015,08,27,16,46,17.50
2015,08,27,16,47,17.20
2015,08,27,16,48,17.30
2015,08,27,16,49,17.40
2015,08,27,16,50,16.90
2015,08,27,16,51,15.30
2015,08,27,16,52,13.70
2015,08,27,16,53,13.90
2015,08,27,16,54,13.80
2015,08,27,16,55,12.50
2015,08,27,16,56,13.40
2015,08,27,16,57,13.40
2015,08,27,16,58,14.80
2015,08,27,16,59,14.70
2015,08,27,17,00,14.30
2015,08,27,17,01,14.90
2015,08,27,17,02,15.70
2015,08,27,17,03,15.50
2015,08,27,17,04,16.00
2015,08,27,17,05,16.00
2015,08,27,17,06,14.20
2015,08,27,17,07,13.70
2015,08,27,17,08,13.80
2015,08,27,17,09,14.10
2015,08,27,17,10,14.10
2015,08,27,17,11,15.00
2015,08,27,17,12,15.00
2015,08,27,17,13,16.00
2015,08,27,17,14,14.80
2015,08,27,17,15,14.20
2015,08,27,17,16,13.20
2015,08,27,17,17,13.60
2015,08,27,17,18,14.90
2015,08,27,17,19,15.50
2015,08,27,17,20,17.90
2015,08,27,17,21,20.70
2015,08,27,17,22,20.30
2015,08,27,17,23,20.20
2015,08,27,17,24,19.30
2015,08,27,17,25,18.10
2015,08,27,17,26,16.60
2015,08,27,17,27,15.00
2015,08,27,17,28,14.10
2015,08,27,17,29,13.40
2015,08,27,17,30,12.20